Tracking 30746 objects as of 19-Jun-2025
HD Live streaming from Space Station
objects crossing your sky now

ONEWEB-0557

Track ONEWEB-0557 now!
10-day predictions
ONEWEB-0557 is classified as:


NORAD ID: 56058
Int'l Code: 2023-043N
Perigee: 1,204.4 km
Apogee: 1,205.4 km
Inclination: 87.9 °
Period: 109.4 minutes
Semi major axis: 7575 km
RCS: Unknown
Launch date: March 26, 2023
Source: United Kingdom (UK)
Launch site: SRIHARIKOTA (SRI)
Your satellite tracking list
Your tracking list is empty




NASA's NSSDC Master Catalog

Two Line Element Set (TLE):
1 56058U 23043N   25169.65205315  .00000074  00000-0  16023-3 0  9992
2 56058  87.9041 301.2491 0000625  74.5999 285.5201 13.16594138111121
Source of the keplerian elements: AFSPC